,,,PA_Meas_PMT16A,,PR_Meas_QMR101_102,,RH_Meas_QMH101,,SR_Meas_QMS101,,TA_Meas_QMH101,,GenWind,,GenWind,
date,time,status,PA,status,PR,status,RH,status,SR,status,TA,status,DirAvg,status,SpdAvg,
2008-04-18, 00:00:04,VALID,1006.93,VALID,0,VALID,95.055,VALID,0,VALID,24.1422,VALID,164,VALID,0.848047,
2008-04-18, 00:01:04,VALID,1006.91,VALID,0,VALID,95.055,VALID,0,VALID,24.1635,VALID,164,VALID,0.648828,
2008-04-18, 00:02:04,VALID,1006.91,VALID,0,VALID,95.1008,VALID,0,VALID,24.1227,VALID,164,VALID,0.510547,
2008-04-18, 00:03:04,VALID,1006.88,VALID,0,VALID,95.1236,VALID,0,VALID,24.1422,VALID,165,VALID,0.612891,
2008-04-18, 00:04:04,VALID,1006.89,VALID,0,VALID,95.1236,VALID,0,VALID,24.1422,VALID,163,VALID,0.742969,
2008-04-18, 00:05:04,VALID,1006.88,VALID,0,VALID,95.1465,VALID,0,VALID,24.1227,VALID,166,VALID,1.02617,
2008-04-18, 00:06:04,VALID,1006.89,VALID,0,VALID,95.1084,VALID,0,VALID,24.1422,VALID,159,VALID,0.9125,
2008-04-18, 00:07:04,VALID,1006.87,VALID,0,VALID,95.1084,VALID,0,VALID,24.1227,VALID,150,VALID,0.51875,
2008-04-18, 00:08:04,VALID,1006.79,VALID,0,VALID,95.177,VALID,0,VALID,24.1635,VALID,141,VALID,0.248437,
2008-04-18, 00:09:04,VALID,1006.81,VALID,0,VALID,95.1847,VALID,0,VALID,24.1422,VALID,140,VALID,0.399219,
2008-04-18, 00:10:04,VALID,1006.79,VALID,0,VALID,95.1923,VALID,0,VALID,24.1422,VALID,135,VALID,0.359375,
2008-04-18, 00:11:04,VALID,1006.78,VALID,0,VALID,95.1999,VALID,0,VALID,24.1422,VALID,138,VALID,0.936719,
2008-04-18, 00:12:04,VALID,1006.8,VALID,0,VALID,95.1618,VALID,0,VALID,24.144,VALID,148,VALID,0.863281,
2008-04-18, 00:13:04,VALID,1006.79,VALID,0,VALID,95.1465,VALID,0,VALID,24.144,VALID,154,VALID,0.835938,
2008-04-18, 00:14:04,VALID,1006.77,VALID,0,VALID,95.1465,VALID,0,VALID,24.1635,VALID,145,VALID,0.921484,
2008-04-18, 00:15:04,VALID,1006.75,VALID,0,VALID,95.1389,VALID,0,VALID,24.144,VALID,125,VALID,0.569922,
2008-04-18, 00:16:04,VALID,1006.7,VALID,0,VALID,95.1313,VALID,0,VALID,24.1635,VALID,129,VALID,0.288281,
2008-04-18, 00:17:04,VALID,1006.71,VALID,0,VALID,95.116,VALID,0,VALID,24.1422,VALID,129,VALID,0.236328,
2008-04-18, 00:18:04,VALID,1006.74,VALID,0,VALID,95.1008,VALID,0,VALID,24.1635,VALID,140,VALID,0.557813,
2008-04-18, 00:19:04,VALID,1006.77,VALID,0,VALID,95.1236,VALID,0,VALID,24.1617,VALID,137,VALID,0.744141,
2008-04-18, 00:20:04,VALID,1006.75,VALID,0,VALID,95.1084,VALID,0,VALID,24.183,VALID,127,VALID,0.827734,
2008-04-18, 00:21:04,VALID,1006.74,VALID,0,VALID,95.0779,VALID,0,VALID,24.1617,VALID,117,VALID,0.709766,
2008-04-18, 00:22:04,VALID,1006.74,VALID,0,VALID,95.0626,VALID,0,VALID,24.1422,VALID,110,VALID,0.766406,
2008-04-18, 00:23:04,VALID,1006.74,VALID,0,VALID,95.0321,VALID,0,VALID,24.1635,VALID,114,VALID,1.07031,
2008-04-18, 00:24:04,VALID,1006.74,VALID,0,VALID,95.0093,VALID,0,VALID,24.183,VALID,114,VALID,0.970703,
2008-04-18, 00:25:04,VALID,1006.74,VALID,0,VALID,94.9788,VALID,0,VALID,24.1635,VALID,103,VALID,0.654688,
2008-04-18, 00:26:04,VALID,1006.75,VALID,0,VALID,94.9864,VALID,0,VALID,24.1422,VALID,116,VALID,0.586328,
2008-04-18, 00:27:04,VALID,1006.73,VALID,0,VALID,94.9788,VALID,0.105969,VALID,24.1599,VALID,110,VALID,0.548047,
2008-04-18, 00:28:04,VALID,1006.74,VALID,0,VALID,94.9864,VALID,0.105969,VALID,24.1812,VALID,151,VALID,1.0793,
2008-04-18, 00:29:04,VALID,1006.72,VALID,0,VALID,94.9101,VALID,0.105969,VALID,24.1404,VALID,167,VALID,1.09219,
2008-04-18, 00:30:04,VALID,1006.69,VALID,0,VALID,94.8873,VALID,0.105969,VALID,24.1014,VALID,161,VALID,1.09141,
2008-04-18, 00:31:04,VALID,1006.7,VALID,0,VALID,94.9406,VALID,0.105969,VALID,24.1014,VALID,159,VALID,0.930078,
2008-04-18, 00:32:04,VALID,1006.66,VALID,0,VALID,94.9711,VALID,0.105969,VALID,24.1014,VALID,162,VALID,0.636719,
2008-04-18, 00:33:04,VALID,1006.6,VALID,0,VALID,95.0169,VALID,0,VALID,24.0624,VALID,163,VALID,0.857031,
2008-04-18, 00:34:04,VALID,1006.6,VALID,0,VALID,95.0626,VALID,0.105969,VALID,24.0643,VALID,158,VALID,0.718359,
2008-04-18, 00:35:04,VALID,1006.57,VALID,0,VALID,95.1236,VALID,0.105969,VALID,24.0448,VALID,152,VALID,0.844922,
2008-04-18, 00:36:04,VALID,1006.56,VALID,0,VALID,95.1694,VALID,0.105969,VALID,24.0235,VALID,150,VALID,0.715234,
2008-04-18, 00:37:04,VALID,1006.54,VALID,0,VALID,95.2304,VALID,0,VALID,24.0448,VALID,156,VALID,0.854688,
2008-04-18, 00:38:04,VALID,1006.56,VALID,0,VALID,95.2762,VALID,0,VALID,24.0448,VALID,148,VALID,1.01484,
2008-04-18, 00:39:04,VALID,1006.53,VALID,0,VALID,95.2838,VALID,0.105969,VALID,24.0235,VALID,158,VALID,0.613281,
2008-04-18, 00:40:04,VALID,1006.53,VALID,0,VALID,95.3295,VALID,0.105969,VALID,24.004,VALID,164,VALID,0.541406,
2008-04-18, 00:41:04,VALID,1006.53,VALID,0,VALID,95.3295,VALID,0.105969,VALID,24.004,VALID,143,VALID,0.496484,
2008-04-18, 00:42:04,VALID,1006.48,VALID,0,VALID,95.3905,VALID,0,VALID,24.0076,VALID,122,VALID,0.552734,
2008-04-18, 00:43:04,VALID,1006.48,VALID,0,VALID,95.4134,VALID,0,VALID,23.9863,VALID,142,VALID,0.600781,
2008-04-18, 00:44:04,VALID,1006.49,VALID,0,VALID,95.3982,VALID,0,VALID,23.9668,VALID,155,VALID,1.87695,
2008-04-18, 00:45:04,VALID,1006.49,VALID,0,VALID,95.4363,VALID,0,VALID,23.9863,VALID,155,VALID,1.0082,
2008-04-18, 00:46:04,VALID,1006.45,VALID,0,VALID,95.4439,VALID,0,VALID,23.9668,VALID,149,VALID,0.711719,
2008-04-18, 00:47:04,VALID,1006.43,VALID,0,VALID,95.4516,VALID,0,VALID,24.0076,VALID,139,VALID,0.707422,
2008-04-18, 00:48:04,VALID,1006.43,VALID,0,VALID,95.4821,VALID,0,VALID,23.9668,VALID,152,VALID,0.772266,
2008-04-18, 00:49:04,VALID,1006.42,VALID,0,VALID,95.5126,VALID,0,VALID,23.9668,VALID,158,VALID,0.785156,
2008-04-18, 00:50:04,VALID,1006.37,VALID,0,VALID,95.5202,VALID,0,VALID,23.9668,VALID,140,VALID,0.607031,
2008-04-18, 00:51:04,VALID,1006.37,VALID,0,VALID,95.5278,VALID,0,VALID,23.9863,VALID,125,VALID,1.23047,
2008-04-18, 00:52:04,VALID,1006.34,VALID,0,VALID,95.5431,VALID,0,VALID,23.9863,VALID,160,VALID,1.24844,
2008-04-18, 00:53:04,VALID,1006.32,VALID,0,VALID,95.5583,VALID,0,VALID,23.9668,VALID,153,VALID,1.0043,
2008-04-18, 00:54:04,VALID,1006.29,VALID,0,VALID,95.5583,VALID,0,VALID,23.9668,VALID,125,VALID,1.22187,
2008-04-18, 00:55:04,VALID,1006.28,VALID,0,VALID,95.5507,VALID,0,VALID,23.9668,VALID,167,VALID,1.23398,
2008-04-18, 00:56:04,VALID,1006.23,VALID,0,VALID,95.5507,VALID,0,VALID,23.9863,VALID,122,VALID,0.994922,
2008-04-18, 00:57:04,VALID,1006.23,VALID,0,VALID,95.5507,VALID,0,VALID,23.9473,VALID,142,VALID,1.11641,
2008-04-18, 00:58:04,VALID,1006.24,VALID,0,VALID,95.5278,VALID,0,VALID,23.9686,VALID,148,VALID,1.35703,
2008-04-18, 00:59:04,VALID,1006.24,VALID,0,VALID,95.5583,VALID,0,VALID,23.9668,VALID,151,VALID,0.962891,
2008-04-18, 01:00:04,VALID,1006.24,VALID,0,VALID,95.5583,VALID,0,VALID,23.9473,VALID,176,VALID,0.65,
2008-04-18, 01:01:04,VALID,1006.24,VALID,0,VALID,95.5583,VALID,0,VALID,23.9881,VALID,150,VALID,1.05039,
2008-04-18, 01:02:04,VALID,1006.23,VALID,0,VALID,95.5736,VALID,0,VALID,23.9863,VALID,161,VALID,1.60625,
2008-04-18, 01:03:04,VALID,1006.24,VALID,0,VALID,95.5507,VALID,0,VALID,24.0076,VALID,148,VALID,1.04688,
2008-04-18, 01:04:04,VALID,1006.18,VALID,0,VALID,95.5507,VALID,0,VALID,23.9863,VALID,155,VALID,0.786719,
2008-04-18, 01:05:04,VALID,1006.21,VALID,0,VALID,95.5583,VALID,0,VALID,23.9863,VALID,175,VALID,0.777734,
2008-04-18, 01:06:04,VALID,1006.23,VALID,0,VALID,95.5431,VALID,0,VALID,23.9863,VALID,176,VALID,1.06797,
2008-04-18, 01:07:04,VALID,1006.23,VALID,0,VALID,95.5354,VALID,0,VALID,23.9863,VALID,160,VALID,1.31289,
2008-04-18, 01:08:04,VALID,1006.25,VALID,0,VALID,95.5507,VALID,0,VALID,23.9668,VALID,163,VALID,1.61523,
2008-04-18, 01:09:04,VALID,1006.25,VALID,0,VALID,95.5659,VALID,0,VALID,23.9668,VALID,147,VALID,1.60273,
2008-04-18, 01:10:04,VALID,1006.26,VALID,0,VALID,95.5888,VALID,0,VALID,23.9686,VALID,148,VALID,1.40703,
2008-04-18, 01:11:04,VALID,1006.26,VALID,0,VALID,95.6346,VALID,0,VALID,23.9668,VALID,160,VALID,1.22461,
2008-04-18, 01:12:04,VALID,1006.25,VALID,0,VALID,95.6956,VALID,0,VALID,23.9473,VALID,171,VALID,1.28789,
2008-04-18, 01:13:04,VALID,1006.23,VALID,0,VALID,95.7261,VALID,0,VALID,23.9668,VALID,162,VALID,1.34023,
2008-04-18, 01:14:04,VALID,1006.21,VALID,0,VALID,95.7413,VALID,0,VALID,23.9473,VALID,145,VALID,0.641406,
2008-04-18, 01:15:04,VALID,1006.22,VALID,0,VALID,95.7718,VALID,0,VALID,23.9881,VALID,138,VALID,0.458984,
2008-04-18, 01:16:04,VALID,1006.23,VALID,0,VALID,95.81,VALID,0,VALID,23.9881,VALID,137,VALID,0.610547,
2008-04-18, 01:17:04,VALID,1006.23,VALID,0,VALID,95.8252,VALID,0,VALID,23.9473,VALID,142,VALID,1.16602,
2008-04-18, 01:18:04,VALID,1006.24,VALID,0,VALID,95.8328,VALID,0,VALID,23.9473,VALID,148,VALID,0.657422,
2008-04-18, 01:19:04,VALID,1006.22,VALID,0,VALID,95.8252,VALID,0,VALID,23.9491,VALID,129,VALID,0.685156,
2008-04-18, 01:20:04,VALID,1006.2,VALID,0,VALID,95.8557,VALID,0,VALID,23.9278,VALID,155,VALID,0.371875,
2008-04-18, 01:21:04,VALID,1006.2,VALID,0,VALID,95.8786,VALID,0,VALID,23.9491,VALID,155,VALID,0.307422,
2008-04-18, 01:22:04,VALID,1006.19,VALID,0,VALID,95.8862,VALID,0,VALID,23.9491,VALID,155,VALID,0.343359,
2008-04-18, 01:23:04,VALID,1006.17,VALID,0,VALID,95.9015,VALID,0,VALID,23.9297,VALID,155,VALID,0.197656,
2008-04-18, 01:24:04,VALID,1006.18,VALID,0,VALID,95.9167,VALID,0,VALID,23.9278,VALID,156,VALID,0.844531,
2008-04-18, 01:25:04,VALID,1006.16,VALID,0,VALID,95.932,VALID,0,VALID,23.9084,VALID,180,VALID,0.398438,
2008-04-18, 01:26:04,VALID,1006.12,VALID,0,VALID,95.9549,VALID,0,VALID,23.9297,VALID,180,VALID,0.262109,
2008-04-18, 01:27:04,VALID,1006.14,VALID,0,VALID,95.9472,VALID,0,VALID,23.8889,VALID,180,VALID,0.4,
2008-04-18, 01:28:04,VALID,1006.15,VALID,0,VALID,95.9625,VALID,0,VALID,23.8907,VALID,179,VALID,0.491406,
2008-04-18, 01:29:04,VALID,1006.16,VALID,0,VALID,95.9701,VALID,0,VALID,23.9084,VALID,178,VALID,0.708594,
2008-04-18, 01:30:04,VALID,1006.14,VALID,0,VALID,95.9854,VALID,0,VALID,23.8889,VALID,170,VALID,0.885156,
2008-04-18, 01:31:04,VALID,1006.16,VALID,0,VALID,95.9854,VALID,0,VALID,23.8889,VALID,165,VALID,0.530859,
2008-04-18, 01:32:04,VALID,1006.2,VALID,0,VALID,95.993,VALID,0,VALID,23.8694,VALID,167,VALID,0.335938,
2008-04-18, 01:33:04,VALID,1006.19,VALID,0,VALID,96.0235,VALID,0,VALID,23.8907,VALID,170,VALID,0.666406,
2008-04-18, 01:34:04,VALID,1006.21,VALID,0,VALID,96.0387,VALID,0,VALID,23.9102,VALID,157,VALID,0.3875,
2008-04-18, 01:35:04,VALID,1006.21,VALID,0,VALID,96.054,VALID,0,VALID,23.8889,VALID,150,VALID,0.460156,
2008-04-18, 01:36:04,VALID,1006.24,VALID,0,VALID,96.0769,VALID,0,VALID,23.8694,VALID,135,VALID,0.625391,
2008-04-18, 01:37:04,VALID,1006.23,VALID,0,VALID,96.0921,VALID,0,VALID,23.8889,VALID,105,VALID,0.598828,
2008-04-18, 01:38:04,VALID,1006.28,VALID,0,VALID,96.0997,VALID,0,VALID,23.9084,VALID,96,VALID,0.613281,
2008-04-18, 01:39:04,VALID,1006.26,VALID,0,VALID,96.0845,VALID,0,VALID,23.9102,VALID,95,VALID,0.808984,
2008-04-18, 01:40:04,VALID,1006.28,VALID,0,VALID,96.0921,VALID,0,VALID,23.9102,VALID,59,VALID,0.748438,
2008-04-18, 01:41:04,VALID,1006.28,VALID,0,VALID,96.0997,VALID,0,VALID,23.8889,VALID,55,VALID,0.561328,
2008-04-18, 01:42:04,VALID,1006.3,VALID,0,VALID,96.0921,VALID,0,VALID,23.8712,VALID,73,VALID,0.569141,
2008-04-18, 01:43:04,VALID,1006.28,VALID,0,VALID,96.0921,VALID,0,VALID,23.8499,VALID,68,VALID,0.285547,
2008-04-18, 01:44:04,VALID,1006.28,VALID,0,VALID,96.0845,VALID,0,VALID,23.8304,VALID,69,VALID,0.696484,
2008-04-18, 01:45:04,VALID,1006.27,VALID,0,VALID,96.1074,VALID,0,VALID,23.8304,VALID,62,VALID,0.710938,
2008-04-18, 01:46:04,VALID,1006.29,VALID,0,VALID,96.0769,VALID,0,VALID,23.8322,VALID,65,VALID,0.877344,
2008-04-18, 01:47:04,VALID,1006.29,VALID,0,VALID,96.115,VALID,0,VALID,23.8127,VALID,64,VALID,0.617578,
2008-04-18, 01:48:04,VALID,1006.26,VALID,0,VALID,96.1226,VALID,0,VALID,23.8127,VALID,57,VALID,0.939062,
2008-04-18, 01:49:04,VALID,1006.28,VALID,0,VALID,96.0921,VALID,0,VALID,23.8127,VALID,71,VALID,0.968359,
2008-04-18, 01:50:04,VALID,1006.28,VALID,0,VALID,96.0997,VALID,0,VALID,23.733,VALID,74,VALID,0.98125,
2008-04-18, 01:51:04,VALID,1006.28,VALID,0,VALID,96.1302,VALID,0,VALID,23.7135,VALID,65,VALID,0.746484,
2008-04-18, 01:52:04,VALID,1006.29,VALID,0,VALID,96.1531,VALID,0,VALID,23.7135,VALID,87,VALID,0.580078,
2008-04-18, 01:53:04,VALID,1006.29,VALID,0,VALID,96.1608,VALID,0,VALID,23.7135,VALID,76,VALID,0.85,
2008-04-18, 01:54:04,VALID,1006.27,VALID,0,VALID,96.1684,VALID,0,VALID,23.694,VALID,65,VALID,0.875391,
2008-04-18, 01:55:04,VALID,1006.24,VALID,0,VALID,96.1989,VALID,0,VALID,23.7153,VALID,63,VALID,1.05352,
2008-04-18, 01:56:04,VALID,1006.26,VALID,0,VALID,96.1608,VALID,0,VALID,23.6763,VALID,75,VALID,1.01641,
2008-04-18, 01:57:04,VALID,1006.25,VALID,0,VALID,96.1684,VALID,0,VALID,23.655,VALID,52,VALID,1.19492,
2008-04-18, 01:58:04,VALID,1006.24,VALID,0,VALID,96.1989,VALID,0,VALID,23.6356,VALID,64,VALID,0.924609,
2008-04-18, 01:59:04,VALID,1006.25,VALID,0,VALID,96.2065,VALID,0,VALID,23.6373,VALID,55,VALID,0.805469,
2008-04-18, 02:00:04,VALID,1006.24,VALID,0,VALID,96.2446,VALID,0,VALID,23.6373,VALID,74,VALID,0.853125,
2008-04-18, 02:01:04,VALID,1006.21,VALID,0,VALID,96.2294,VALID,0,VALID,23.5966,VALID,69,VALID,0.625391,
2008-04-18, 02:02:04,VALID,1006.17,VALID,0,VALID,96.2599,VALID,0,VALID,23.6179,VALID,70,VALID,0.733203,
2008-04-18, 02:03:04,VALID,1006.18,VALID,0,VALID,96.2828,VALID,0,VALID,23.5984,VALID,91,VALID,0.582031,
2008-04-18, 02:04:04,VALID,1006.14,VALID,0,VALID,96.3056,VALID,0,VALID,23.5966,VALID,68,VALID,0.554688,
2008-04-18, 02:05:04,VALID,1006.13,VALID,0,VALID,96.3133,VALID,0,VALID,23.5966,VALID,70,VALID,0.522266,
2008-04-18, 02:06:04,VALID,1006.09,VALID,0,VALID,96.298,VALID,0,VALID,23.5984,VALID,72,VALID,0.617188,
2008-04-18, 02:07:04,VALID,1006.11,VALID,0,VALID,96.3133,VALID,0,VALID,23.5576,VALID,74,VALID,0.940625,
2008-04-18, 02:08:04,VALID,1006.09,VALID,0,VALID,96.3133,VALID,0,VALID,23.5771,VALID,67,VALID,0.791406,
2008-04-18, 02:09:04,VALID,1006.11,VALID,0,VALID,96.3361,VALID,0,VALID,23.5789,VALID,69,VALID,0.822266,
2008-04-18, 02:10:04,VALID,1006.11,VALID,0,VALID,96.3133,VALID,0,VALID,23.5381,VALID,55,VALID,0.832031,
2008-04-18, 02:11:04,VALID,1006.13,VALID,0,VALID,96.3209,VALID,0,VALID,23.5381,VALID,48,VALID,0.900391,
2008-04-18, 02:12:04,VALID,1006.13,VALID,0,VALID,96.3514,VALID,0,VALID,23.5186,VALID,27,VALID,0.588281,
2008-04-18, 02:13:04,VALID,1006.13,VALID,0,VALID,96.3514,VALID,0,VALID,23.5399,VALID,56,VALID,0.472266,
2008-04-18, 02:14:04,VALID,1006.12,VALID,0,VALID,96.359,VALID,0,VALID,23.5186,VALID,42,VALID,0.417578,
2008-04-18, 02:15:04,VALID,1006.09,VALID,0,VALID,96.3438,VALID,0,VALID,23.4992,VALID,52,VALID,0.941406,
2008-04-18, 02:16:04,VALID,1006.08,VALID,0,VALID,96.3666,VALID,0,VALID,23.4992,VALID,36,VALID,0.463281,
2008-04-18, 02:17:04,VALID,1006.06,VALID,0,VALID,96.3743,VALID,0,VALID,23.4992,VALID,62,VALID,0.941406,
2008-04-18, 02:18:04,VALID,1006.06,VALID,0,VALID,96.4048,VALID,0,VALID,23.4992,VALID,48,VALID,0.302734,
2008-04-18, 02:19:04,VALID,1006.06,VALID,0,VALID,96.4124,VALID,0,VALID,23.5204,VALID,37,VALID,0.266016,
2008-04-18, 02:20:04,VALID,1006.08,VALID,0,VALID,96.3895,VALID,0,VALID,23.5009,VALID,37,VALID,0.0175781,
2008-04-18, 02:21:04,VALID,1006.07,VALID,0,VALID,96.4048,VALID,0,VALID,23.4797,VALID,37,VALID,0,
2008-04-18, 02:22:04,VALID,1006.07,VALID,0,VALID,96.4124,VALID,0,VALID,23.5009,VALID,37,VALID,0,
2008-04-18, 02:23:04,VALID,1006.08,VALID,0,VALID,96.4277,VALID,0,VALID,23.4797,VALID,356,VALID,0.160938,
2008-04-18, 02:24:04,VALID,1006.08,VALID,0,VALID,96.4277,VALID,0,VALID,23.5009,VALID,355,VALID,0.00625,
2008-04-18, 02:25:04,VALID,1006.05,VALID,0,VALID,96.4277,VALID,0,VALID,23.4797,VALID,315,VALID,0.570703,
2008-04-18, 02:26:04,VALID,1006.06,VALID,0,VALID,96.4353,VALID,0,VALID,23.4797,VALID,346,VALID,0.162891,
2008-04-18, 02:27:04,VALID,1006.08,VALID,0,VALID,96.4353,VALID,0,VALID,23.4797,VALID,346,VALID,0.0875,
2008-04-18, 02:28:04,VALID,1006.08,VALID,0,VALID,96.4429,VALID,0,VALID,23.4797,VALID,43,VALID,0.277344,
2008-04-18, 02:29:04,VALID,1006.09,VALID,0,VALID,96.4277,VALID,0,VALID,23.4407,VALID,72,VALID,0.0804688,
2008-04-18, 02:30:04,VALID,1006.1,VALID,0,VALID,96.4277,VALID,0,VALID,23.4815,VALID,72,VALID,0.0503906,
2008-04-18, 02:31:04,VALID,1006.14,VALID,0,VALID,96.4429,VALID,0,VALID,23.4407,VALID,73,VALID,0.496875,
2008-04-18, 02:32:04,VALID,1006.13,VALID,0,VALID,96.4429,VALID,0,VALID,23.4602,VALID,55,VALID,0.465625,
2008-04-18, 02:33:04,VALID,1006.1,VALID,0,VALID,96.4582,VALID,0,VALID,23.4407,VALID,77,VALID,0.4875,
2008-04-18, 02:34:04,VALID,1006.13,VALID,0,VALID,96.4658,VALID,0,VALID,23.4212,VALID,57,VALID,0.375391,
2008-04-18, 02:35:04,VALID,1006.13,VALID,0,VALID,96.4582,VALID,0,VALID,23.4212,VALID,81,VALID,0.453516,
2008-04-18, 02:36:04,VALID,1006.13,VALID,0,VALID,96.4429,VALID,0,VALID,23.4017,VALID,77,VALID,0.391406,
2008-04-18, 02:37:04,VALID,1006.13,VALID,0,VALID,96.4658,VALID,0,VALID,23.4212,VALID,58,VALID,0.729297,
2008-04-18, 02:38:04,VALID,1006.14,VALID,0,VALID,96.4658,VALID,0,VALID,23.4017,VALID,62,VALID,0.541406,
2008-04-18, 02:39:04,VALID,1006.16,VALID,0,VALID,96.481,VALID,0,VALID,23.4017,VALID,51,VALID,0.455859,
2008-04-18, 02:40:04,VALID,1006.19,VALID,0,VALID,96.4505,VALID,0,VALID,23.4017,VALID,30,VALID,0.512109,
2008-04-18, 02:41:04,VALID,1006.21,VALID,0,VALID,96.481,VALID,0,VALID,23.3823,VALID,38,VALID,0.762891,
2008-04-18, 02:42:04,VALID,1006.2,VALID,0,VALID,96.481,VALID,0,VALID,23.4035,VALID,65,VALID,0.732422,
2008-04-18, 02:43:04,VALID,1006.21,VALID,0,VALID,96.4887,VALID,0,VALID,23.3823,VALID,75,VALID,0.856641,
2008-04-18, 02:44:04,VALID,1006.23,VALID,0,VALID,96.4963,VALID,0,VALID,23.4017,VALID,28,VALID,0.357422,
2008-04-18, 02:45:04,VALID,1006.23,VALID,0,VALID,96.4963,VALID,0,VALID,23.3823,VALID,83,VALID,0.732031,
2008-04-18, 02:46:04,VALID,1006.25,VALID,0,VALID,96.4963,VALID,0,VALID,23.4035,VALID,84,VALID,0.441797,
2008-04-18, 02:47:04,VALID,1006.26,VALID,0,VALID,96.5039,VALID,0,VALID,23.4035,VALID,82,VALID,0.301953,
2008-04-18, 02:48:04,VALID,1006.23,VALID,0,VALID,96.5344,VALID,0,VALID,23.423,VALID,66,VALID,0.297266,
2008-04-18, 02:49:04,VALID,1006.22,VALID,0,VALID,96.542,VALID,0,VALID,23.4212,VALID,92,VALID,0.691016,
2008-04-18, 02:50:04,VALID,1006.19,VALID,0,VALID,96.5115,VALID,0,VALID,23.4017,VALID,93,VALID,1.01914,
2008-04-18, 02:51:04,VALID,1006.22,VALID,0,VALID,96.542,VALID,0,VALID,23.4212,VALID,80,VALID,0.377734,
2008-04-18, 02:52:04,VALID,1006.22,VALID,0,VALID,96.5039,VALID,0,VALID,23.3823,VALID,72,VALID,0.789453,
2008-04-18, 02:53:04,VALID,1006.19,VALID,0,VALID,96.5192,VALID,0,VALID,23.4017,VALID,68,VALID,0.600391,
2008-04-18, 02:54:04,VALID,1006.17,VALID,0,VALID,96.5344,VALID,0,VALID,23.423,VALID,74,VALID,0.590234,
2008-04-18, 02:55:04,VALID,1006.17,VALID,0,VALID,96.542,VALID,0,VALID,23.4407,VALID,84,VALID,0.415234,
2008-04-18, 02:56:04,VALID,1006.15,VALID,0,VALID,96.5268,VALID,0,VALID,23.4212,VALID,77,VALID,0.483594,
2008-04-18, 02:57:04,VALID,1006.15,VALID,0,VALID,96.5268,VALID,0,VALID,23.4035,VALID,82,VALID,0.839453,
2008-04-18, 02:58:04,VALID,1006.12,VALID,0,VALID,96.542,VALID,0,VALID,23.4017,VALID,85,VALID,0.554688,
2008-04-18, 02:59:04,VALID,1006.11,VALID,0,VALID,96.5344,VALID,0,VALID,23.4017,VALID,60,VALID,0.625781,
2008-04-18, 03:00:04,VALID,1006.13,VALID,0,VALID,96.5344,VALID,0,VALID,23.4017,VALID,60,VALID,0.446484,
2008-04-18, 03:01:04,VALID,1006.11,VALID,0,VALID,96.5725,VALID,0,VALID,23.4017,VALID,25,VALID,0.353125,
2008-04-18, 03:02:04,VALID,1006.1,VALID,0,VALID,96.542,VALID,0,VALID,23.4017,VALID,22,VALID,0.141797,
2008-04-18, 03:03:04,VALID,1006.09,VALID,0,VALID,96.5497,VALID,0,VALID,23.4017,VALID,22,VALID,0.155078,
2008-04-18, 03:04:04,VALID,1006.13,VALID,0,VALID,96.542,VALID,0,VALID,23.3823,VALID,22,VALID,0.161719,
2008-04-18, 03:05:04,VALID,1006.1,VALID,0,VALID,96.5344,VALID,0,VALID,23.3823,VALID,58,VALID,0.391016,
2008-04-18, 03:06:04,VALID,1006.08,VALID,0,VALID,96.5344,VALID,0,VALID,23.3823,VALID,66,VALID,0.190234,
2008-04-18, 03:07:04,VALID,1006.1,VALID,0,VALID,96.5497,VALID,0,VALID,23.3823,VALID,72,VALID,0.299219,
2008-04-18, 03:08:04,VALID,1006.06,VALID,0,VALID,96.5497,VALID,0,VALID,23.3823,VALID,72,VALID,0.342969,
2008-04-18, 03:09:04,VALID,1006.01,VALID,0,VALID,96.5649,VALID,0,VALID,23.3823,VALID,72,VALID,0.152344,
2008-04-18, 03:10:04,VALID,1005.99,VALID,0,VALID,96.5344,VALID,0,VALID,23.3628,VALID,72,VALID,0.265234,
2008-04-18, 03:11:04,VALID,1005.97,VALID,0,VALID,96.5649,VALID,0,VALID,23.384,VALID,72,VALID,0.09375,
2008-04-18, 03:12:04,VALID,1005.93,VALID,0,VALID,96.5497,VALID,0,VALID,23.384,VALID,72,VALID,0.229687,
2008-04-18, 03:13:04,VALID,1005.91,VALID,0,VALID,96.5344,VALID,0,VALID,23.3823,VALID,72,VALID,0.340234,
2008-04-18, 03:14:04,VALID,1005.92,VALID,0,VALID,96.5725,VALID,0,VALID,23.3628,VALID,72,VALID,0.292578,
2008-04-18, 03:15:04,VALID,1005.91,VALID,0,VALID,96.5649,VALID,0,VALID,23.3628,VALID,72,VALID,0.315234,
2008-04-18, 03:16:04,VALID,1005.89,VALID,0,VALID,96.5802,VALID,0,VALID,23.3823,VALID,56,VALID,0.493359,
2008-04-18, 03:17:04,VALID,1005.89,VALID,0,VALID,96.5649,VALID,0,VALID,23.384,VALID,43,VALID,0.493359,
2008-04-18, 03:18:04,VALID,1005.88,VALID,0,VALID,96.5573,VALID,0,VALID,23.3433,VALID,43,VALID,0.222656,
2008-04-18, 03:19:04,VALID,1005.89,VALID,0,VALID,96.5649,VALID,0,VALID,23.3433,VALID,56,VALID,0.469531,
2008-04-18, 03:20:04,VALID,1005.88,VALID,0,VALID,96.5725,VALID,0,VALID,23.3628,VALID,57,VALID,0.344531,
2008-04-18, 03:21:04,VALID,1005.86,VALID,0,VALID,96.5802,VALID,0,VALID,23.3433,VALID,58,VALID,0.524609,
2008-04-18, 03:22:04,VALID,1005.86,VALID,0,VALID,96.5649,VALID,0,VALID,23.3433,VALID,41,VALID,0.184766,
2008-04-18, 03:23:04,VALID,1005.83,VALID,0,VALID,96.5802,VALID,0,VALID,23.3433,VALID,41,VALID,0.180859,
2008-04-18, 03:24:04,VALID,1005.85,VALID,0,VALID,96.5497,VALID,0,VALID,23.3433,VALID,41,VALID,0.234375,
2008-04-18, 03:25:04,VALID,1005.84,VALID,0,VALID,96.5649,VALID,0,VALID,23.3043,VALID,41,VALID,0.118359,
2008-04-18, 03:26:04,VALID,1005.81,VALID,0,VALID,96.5725,VALID,0,VALID,23.3043,VALID,59,VALID,0.596094,
2008-04-18, 03:27:04,VALID,1005.81,VALID,0,VALID,96.5649,VALID,0,VALID,23.3238,VALID,84,VALID,0.399219,
2008-04-18, 03:28:04,VALID,1005.8,VALID,0,VALID,96.5878,VALID,0,VALID,23.3043,VALID,76,VALID,0.396094,
2008-04-18, 03:29:04,VALID,1005.79,VALID,0,VALID,96.5954,VALID,0,VALID,23.3238,VALID,84,VALID,0.526563,
2008-04-18, 03:30:04,VALID,1005.83,VALID,0,VALID,96.603,VALID,0,VALID,23.3238,VALID,94,VALID,0.55625,
2008-04-18, 03:31:04,VALID,1005.81,VALID,0,VALID,96.5954,VALID,0,VALID,23.3238,VALID,80,VALID,0.803125,
2008-04-18, 03:32:04,VALID,1005.83,VALID,0,VALID,96.5649,VALID,0,VALID,23.3043,VALID,82,VALID,0.583594,
2008-04-18, 03:33:04,VALID,1005.84,VALID,0,VALID,96.5725,VALID,0,VALID,23.3061,VALID,84,VALID,0.760156,
2008-04-18, 03:34:04,VALID,1005.88,VALID,0,VALID,96.5878,VALID,0,VALID,23.3043,VALID,85,VALID,0.6875,
2008-04-18, 03:35:04,VALID,1005.88,VALID,0,VALID,96.5497,VALID,0,VALID,23.2654,VALID,93,VALID,0.937109,
2008-04-18, 03:36:04,VALID,1005.89,VALID,0,VALID,96.5497,VALID,0,VALID,23.2459,VALID,75,VALID,0.891406,
2008-04-18, 03:37:04,VALID,1005.87,VALID,0,VALID,96.5802,VALID,0,VALID,23.2264,VALID,88,VALID,0.660937,
2008-04-18, 03:38:04,VALID,1005.85,VALID,0,VALID,96.5954,VALID,0,VALID,23.2264,VALID,90,VALID,0.450391,
2008-04-18, 03:39:04,VALID,1005.83,VALID,0,VALID,96.5802,VALID,0,VALID,23.2069,VALID,85,VALID,0.673047,
2008-04-18, 03:40:04,VALID,1005.83,VALID,0,VALID,96.5878,VALID,0,VALID,23.2069,VALID,84,VALID,0.376172,
2008-04-18, 03:41:04,VALID,1005.82,VALID,0,VALID,96.5954,VALID,0,VALID,23.1874,VALID,53,VALID,0.697656,
2008-04-18, 03:42:04,VALID,1005.81,VALID,0,VALID,96.5954,VALID,0,VALID,23.1874,VALID,61,VALID,0.138281,
2008-04-18, 03:43:04,VALID,1005.81,VALID,0,VALID,96.5802,VALID,0,VALID,23.1679,VALID,61,VALID,0.565234,
2008-04-18, 03:44:04,VALID,1005.81,VALID,0,VALID,96.603,VALID,0,VALID,23.1679,VALID,73,VALID,0.538281,
2008-04-18, 03:45:04,VALID,1005.81,VALID,0,VALID,96.603,VALID,0,VALID,23.1892,VALID,77,VALID,0.594141,